Wind_Speed
12 13 5 0 3 3 6 6 3 9 3 2 7 10 13 14 3 6 17 19 21 23 23 25 26 26 26 25 25 25 25 27 27 28 24 21 21 21 20 18 15 13 12 11 11 10 10 10 10
17 12 4 1 4 2 4 15 9 10 12 15 17 11 15 7 14 21 24 19 22 24 24 24 24 25 25 24 25 26 26 27 26 24 23 21 19 18 17 14 13 12 10 9 8 8 8 9 9
11 6 2 3 1 4 10 13 11 20 20 11 9 17 8 11 20 25 24 23 23 25 25 25 24 23 24 25 26 26 24 23 21 20 19 16 15 16 14 12 12 10 9 8 6 6 6 8 8
8 6 2 2 6 2 16 15 24 18 11 14 17 12 12 10 20 24 24 25 25 25 24 24 23 23 24 25 25 24 23 22 20 19 18 17 16 15 12 10 9 8 6 6 5 5 6 7 8
6 2 4 3 4 9 17 30 29 18 13 20 15 9 10 14 26 26 25 24 26 25 24 23 23 23 23 23 22 20 19 18 18 18 18 15 14 12 9 7 6 5 5 6 6 6 7 6 7
7 4 5 3 7 5 17 30 28 21 26 25 21 16 7 28 27 25 23 23 23 24 23 22 21 21 22 22 21 18 17 16 15 15 14 13 11 9 7 5 3 4 5 5 5 5 5 4 4
10 5 6 2 4 14 16 32 21 25 21 12 19 8 21 27 24 25 21 22 22 22 22 21 21 20 20 19 18 17 16 15 12 11 11 10 8 7 4 2 2 2 2 3 4 4 4 2 2
17 7 5 3 1 4 19 12 30 31 11 27 29 9 15 32 26 23 21 22 21 22 20 20 20 20 19 18 17 15 14 12 10 10 10 9 7 4 2 2 1 2 3 2 3 3 4 2 1
13 5 4 4 7 3 17 13 22 16 29 18 7 29 35 34 31 27 24 21 19 18 18 17 18 18 17 16 15 13 12 10 9 10 9 7 5 5 2 2 2 1 2 2 1 1 2 2 1
7 5 10 6 5 6 12 24 22 13 22 19 28 33 34 35 33 30 26 23 20 19 18 16 15 16 15 14 13 11 10 9 9 9 7 6 4 3 1 3 6 1 1 2 1 5 6 6 3
9 10 10 11 10 18 14 13 14 26 14 39 34 36 39 38 37 30 27 20 18 18 16 15 15 14 13 15 11 11 10 8 8 8 7 6 4 3 5 5 3 3 4 3 5 7 9 7 7
7 22 22 11 21 20 10 15 7 13 18 34 40 36 42 41 37 29 25 20 18 16 16 15 13 13 13 11 11 9 9 10 8 8 6 5 5 6 6 6 7 7 5 5 6 7 8 10 11
16 12 26 26 25 19 17 10 13 21 34 35 36 37 38 37 31 28 22 20 20 17 19 15 12 13 12 14 12 10 12 10 8 7 8 7 8 7 9 9 9 9 11 11 11 9 12 15 15
16 34 31 30 24 19 20 16 11 26 34 34 34 31 35 31 31 29 27 24 23 17 17 15 10 14 11 13 11 10 9 11 10 11 9 11 9 11 14 11 9 7 9 12 14 15 16 16 17
37 22 15 17 19 8 27 7 7 29 33 32 31 30 29 26 27 30 24 22 22 20 21 19 14 14 12 11 12 13 12 13 13 11 13 13 12 13 12 11 9 12 12 14 14 15 16 16 15
8 12 8 6 17 16 11 5 12 33 32 28 30 31 31 29 28 27 27 23 21 23 22 17 14 12 13 13 16 16 15 15 14 14 15 12 14 15 14 12 12 14 14 12 12 12 14 15 16
6 8 13 6 6 9 6 8 17 32 30 28 29 30 33 32 32 29 26 23 20 19 19 17 15 13 13 11 11 12 16 17 17 18 13 13 13 14 13 12 14 14 11 12 10 11 13 14 15
4 8 17 14 10 4 10 8 19 28 28 29 30 29 30 36 36 32 28 23 20 18 19 18 16 13 11 10 9 9 9 10 12 12 11 12 9 9 11 12 10 8 8 9 10 13 14 16 18
4 8 14 11 11 7 15 13 19 25 24 24 27 29 31 35 35 31 27 24 21 20 19 18 19 14 13 10 8 9 6 6 7 6 6 9 9 9 10 8 7 11 10 9 11 14 15 14 17
4 7 9 1 10 7 13 18 18 23 28 31 29 31 35 32 33 32 29 26 26 22 19 20 17 15 12 10 9 7 5 5 6 4 7 8 6 6 6 13 15 11 9 10 11 11 13 16 13
6 8 10 11 5 7 11 1 9 15 22 25 27 39 41 38 37 35 31 26 27 25 22 21 17 17 14 12 10 8 8 7 8 7 8 6 6 8 11 8 7 6 5 7 11 13 12 13 11
8 10 14 9 15 7 7 5 7 16 15 12 23 31 37 40 38 37 33 28 30 29 24 21 19 18 16 13 12 11 10 11 11 7 9 7 7 9 4 5 1 4 8 12 9 9 8 8 9
12 8 11 11 15 7 3 5 11 8 9 11 20 36 43 43 43 43 39 33 30 30 27 22 23 20 17 16 13 11 13 13 12 10 10 9 7 3 4 6 4 8 13 10 6 6 5 5 5
13 5 6 5 5 2 12 7 4 10 25 20 17 33 36 43 46 45 40 36 32 33 29 26 27 24 20 16 12 14 13 14 14 14 13 12 14 8 6 7 8 12 13 6 5 4 5 4 5
4 6 2 2 1 6 8 9 12 20 24 17 22 35 40 45 47 48 44 42 38 38 35 31 30 28 25 20 18 15 14 10 13 17 17 17 11 9 7 8 12 10 5 3 3 4 5 4 5
8 10 6 7 3 6 9 7 11 17 35 33 34 44 43 43 48 52 49 47 43 41 39 36 35 33 29 25 24 19 9 7 10 12 10 9 9 11 11 10 9 6 6 3 3 3 5 8 8
9 4 10 7 1 3 4 8 7 7 16 21 26 32 39 43 47 52 52 48 47 46 44 43 40 38 33 30 28 21 11 9 10 9 8 11 13 12 9 9 10 12 8 6 6 6 6 10 12
16 7 3 3 7 4 5 4 6 5 11 11 12 25 37 40 45 49 53 52 50 49 47 45 44 42 37 33 30 23 16 11 10 11 11 12 13 11 11 11 8 7 8 9 9 10 11 13 12
2 3 4 6 5 6 3 6 7 16 17 17 17 32 33 42 48 51 53 54 53 52 51 49 47 44 40 36 32 25 21 16 10 9 10 10 10 9 8 9 9 10 9 10 12 13 13 13 14
9 10 7 6 5 2 5 6 5 13 12 23 26 32 35 41 47 52 54 54 56 56 56 53 51 47 42 39 34 29 23 17 12 11 11 9 7 7 8 10 9 8 9 10 10 9 11 12 14
Wind_Direction
167 163 177 8 72 58 118 136 124 140 181 292 63 100 91 39 70 129 137 140 135 127 125 124 128 130 132 133 133 134 135 130 131 138 141 136 126 123 124 120 116 109 104 98 92 88 78 64 56
169 173 157 51 78 119 73 133 158 151 154 119 93 89 52 70 91 132 138 141 138 132 131 130 131 132 134 134 134 133 133 132 135 135 134 134 127 123 124 118 112 110 103 94 83 75 65 53 39
173 153 346 86 112 127 103 138 129 137 145 143 119 77 77 111 118 139 139 141 139 134 134 134 134 137 136 135 133 131 128 128 132 135 140 138 133 127 127 119 114 108 98 88 72 69 55 34 25
142 169 224 75 187 154 130 134 131 135 165 107 99 78 85 142 139 142 143 144 141 138 137 137 139 141 140 137 133 133 131 127 128 129 132 135 131 126 123 117 109 105 88 68 66 47 24 13 11
128 98 65 29 155 116 134 142 144 133 100 107 100 92 94 143 142 140 142 145 145 141 140 139 140 140 139 140 142 140 138 140 140 138 135 134 130 127 125 124 113 88 74 67 46 20 7 11 7
95 65 49 30 317 90 131 133 118 102 110 104 106 102 107 147 147 151 151 152 150 146 145 143 143 144 143 145 144 147 152 150 148 147 145 140 138 138 136 124 103 88 80 53 18 3 356 357 9
92 66 330 71 25 110 127 130 126 132 133 128 131 106 143 154 158 154 152 150 150 149 149 150 150 150 152 151 147 144 145 145 145 149 149 150 147 148 141 107 83 89 37 12 8 356 345 341 41
93 90 221 203 197 119 152 135 141 145 122 138 126 152 163 164 151 154 149 147 152 153 151 148 152 154 154 157 158 156 153 153 150 154 154 162 168 135 148 83 70 332 331 342 358 17 13 10 335
134 100 260 219 152 209 161 125 151 139 138 154 197 155 148 152 153 153 153 149 151 159 159 155 156 157 157 157 159 167 170 169 163 162 162 170 180 168 214 284 228 348 322 10 83 38 15 8 71
169 139 204 236 176 155 141 135 144 134 148 119 125 138 155 157 162 163 162 157 157 158 161 162 164 159 161 163 166 170 175 170 168 174 182 206 203 162 4 274 324 272 296 346 34 354 343 318 293
216 220 158 209 153 132 120 122 134 136 143 146 152 154 161 162 170 167 166 162 160 164 160 162 158 162 166 163 171 176 177 176 188 192 216 233 226 272 273 273 286 264 274 308 321 327 328 315 317
153 215 153 198 153 141 160 121 95 165 160 152 148 156 163 166 168 169 172 173 172 179 173 170 166 166 170 176 161 175 171 173 177 211 222 240 254 286 289 299 289 287 296 308 323 335 338 340 328
202 126 156 162 150 141 136 107 107 120 143 148 149 154 162 165 174 175 182 185 179 177 182 174 180 170 168 175 184 197 199 207 227 223 235 249 275 281 292 314 314 298 298 301 306 309 306 319 315
146 136 150 148 136 131 118 133 101 139 145 151 157 160 172 178 180 182 176 180 184 186 185 185 194 187 194 201 211 213 216 213 225 229 236 247 258 281 288 291 291 305 289 289 295 298 305 306 307
142 131 135 152 152 128 104 71 120 150 151 154 162 170 175 175 179 183 183 184 191 188 187 193 201 210 212 214 221 224 216 214 232 244 249 251 269 281 278 278 290 304 297 300 297 297 303 308 309
149 116 134 226 147 162 100 151 133 150 153 161 166 174 179 186 189 187 184 184 193 195 197 203 209 210 210 222 227 235 235 235 240 244 251 249 254 273 284 286 291 291 297 297 301 302 298 303 309
321 149 137 156 248 138 110 144 164 159 159 166 178 184 185 190 192 192 198 200 196 201 202 207 210 211 215 219 235 245 236 242 251 249 250 253 260 265 282 283 305 300 293 294 300 311 313 318 320
219 102 161 170 176 108 137 169 166 172 171 176 184 189 190 193 192 194 198 200 198 197 201 210 217 217 209 220 230 238 229 228 238 253 255 258 267 269 274 280 290 305 313 313 316 322 321 323 328
211 138 179 195 151 125 156 160 175 178 184 191 189 192 192 193 193 194 196 201 199 200 202 201 206 212 212 222 236 236 241 236 232 238 247 247 257 266 279 273 293 310 311 312 312 313 319 326 329
217 194 191 193 161 112 164 171 181 181 195 195 190 184 184 188 187 191 195 200 202 201 205 199 197 200 212 222 221 218 221 217 195 211 243 253 265 279 286 302 300 297 300 303 307 309 317 320 329
285 194 199 190 147 74 128 176 188 204 200 205 199 189 185 188 188 192 195 198 198 199 193 192 200 210 218 210 212 213 214 217 233 232 245 239 268 301 301 306 290 280 294 302 295 299 310 314 324
270 218 215 168 157 161 177 207 240 196 196 204 192 187 188 191 193 194 193 193 196 198 195 197 206 204 200 202 214 223 226 225 239 219 218 228 270 297 319 321 57 7 335 319 302 300 305 311 324
241 218 200 168 175 107 191 103 213 138 209 216 199 196 194 198 196 193 194 193 197 200 199 197 196 197 198 205 213 227 226 230 223 215 212 241 283 262 260 284 308 312 319 321 313 316 330 327 339
246 253 49 54 98 136 206 158 249 187 208 210 217 201 197 199 199 196 197 194 196 203 206 203 200 202 206 209 219 234 239 246 235 222 225 242 268 251 256 269 271 291 304 303 309 346 349 343 352
159 69 312 327 132 204 195 191 234 208 216 203 199 196 198 202 195 196 194 194 193 201 207 209 207 208 211 213 218 225 231 216 223 232 241 253 237 239 236 251 284 297 300 308 10 18 354 335 328
201 156 156 195 256 260 136 211 245 201 207 205 199 196 197 195 193 196 198 197 201 204 210 210 211 213 214 215 219 218 222 212 194 194 195 201 229 251 255 269 280 285 304 302 292 288 305 309 313
244 146 188 138 84 69 256 300 330 192 195 189 183 184 193 196 193 197 203 203 203 206 209 212 214 215 214 216 217 216 218 230 220 210 214 229 243 262 257 269 282 288 274 282 267 262 264 283 293
193 178 94 1 166 202 281 259 229 189 182 192 192 185 192 196 197 200 204 208 208 210 211 214 217 214 212 214 220 217 217 218 217 220 229 238 239 238 251 257 265 272 267 275 275 274 278 277 278
89 132 65 122 140 162 226 268 218 199 187 187 199 209 192 195 199 205 210 212 213 213 214 216 217 216 213 214 218 218 219 220 211 215 217 217 221 231 249 267 276 278 279 286 291 286 283 286 283
169 174 148 142 230 154 166 263 261 183 184 183 201 206 211 201 202 210 216 214 215 216 215 218 219 218 215 214 217 221 219 221 223 233 234 232 242 252 264 263 267 276 288 291 286 288 287 288 286
Height
1508 1508 1507 1508 1516 1514 1524 1528 1519 1523 1523 1520 1523 1524 1532 1532 1534 1553 1549 1551 1552 1553 1554 1556 1558 1558 1560 1563 1564 1566 1568 1568 1570 1572 1574 1576 1578 1577 1580 1582 1582 1582 1582 1581 1581 1581 1580 1580 1579
1508 1508 1508 1508 1521 1532 1530 1518 1524 1520 1522 1524 1526 1529 1531 1539 1538 1545 1549 1553 1554 1555 1556 1559 1560 1561 1564 1566 1567 1568 1569 1571 1574 1574 1576 1577 1578 1579 1581 1583 1583 1583 1583 1582 1582 1581 1581 1580 1580
1508 1510 1510 1510 1522 1530 1530 1518 1518 1522 1524 1524 1527 1530 1536 1544 1544 1547 1551 1553 1556 1557 1559 1561 1562 1564 1566 1568 1569 1570 1573 1574 1575 1576 1578 1578 1580 1580 1582 1582 1582 1582 1582 1582 1582 1581 1580 1580 1579
1506 1510 1510 1515 1522 1510 1512 1516 1515 1523 1529 1528 1527 1534 1542 1546 1546 1547 1551 1555 1557 1558 1560 1562 1564 1567 1568 1570 1571 1573 1575 1575 1577 1578 1579 1580 1580 1581 1582 1582 1582 1582 1582 1582 1581 1581 1581 1580 1578
1506 1507 1516 1521 1513 1512 1510 1512 1516 1521 1525 1528 1528 1539 1544 1548 1548 1550 1553 1556 1557 1559 1562 1563 1566 1568 1570 1571 1573 1575 1576 1577 1577 1578 1578 1579 1581 1581 1582 1582 1582 1582 1582 1581 1581 1581 1580 1579 1578
1504 1507 1528 1535 1523 1510 1515 1513 1516 1520 1527 1530 1534 1537 1548 1550 1551 1553 1556 1558 1560 1560 1563 1565 1568 1569 1571 1573 1574 1575 1576 1577 1578 1578 1579 1581 1581 1582 1582 1582 1582 1582 1581 1581 1580 1580 1579 1578 1577
1500 1515 1528 1524 1525 1518 1516 1514 1515 1522 1528 1532 1533 1538 1549 1552 1553 1555 1558 1559 1561 1562 1564 1566 1568 1570 1572 1574 1574 1576 1577 1578 1578 1579 1580 1580 1581 1582 1582 1582 1582 1581 1581 1580 1579 1579 1577 1577 1577
1501 1521 1523 1523 1527 1522 1516 1515 1515 1517 1526 1531 1533 1540 1545 1549 1553 1557 1559 1561 1562 1564 1566 1567 1569 1571 1572 1573 1575 1576 1577 1578 1579 1579 1580 1581 1581 1582 1582 1582 1582 1581 1580 1580 1579 1578 1577 1577 1577
1506 1525 1532 1518 1520 1517 1514 1513 1523 1523 1524 1529 1531 1533 1540 1547 1553 1557 1559 1562 1564 1565 1567 1568 1569 1571 1572 1573 1574 1576 1576 1577 1578 1579 1580 1580 1581 1582 1581 1582 1581 1581 1580 1580 1578 1578 1578 1577 1577
1504 1520 1518 1505 1505 1509 1512 1513 1518 1524 1529 1532 1534 1539 1543 1548 1552 1555 1557 1560 1563 1564 1566 1568 1570 1570 1572 1573 1575 1575 1577 1577 1578 1579 1580 1580 1581 1581 1581 1581 1580 1580 1579 1580 1579 1578 1578 1578 1577
1496 1504 1500 1503 1504 1507 1510 1515 1517 1522 1529 1524 1530 1536 1542 1547 1551 1554 1557 1559 1561 1563 1565 1567 1569 1571 1572 1573 1574 1575 1576 1577 1578 1578 1579 1579 1580 1580 1580 1581 1580 1580 1579 1579 1578 1577 1577 1577 1577
1495 1490 1495 1504 1504 1506 1508 1513 1518 1518 1523 1525 1531 1536 1541 1545 1550 1552 1555 1559 1561 1562 1564 1566 1569 1571 1573 1574 1574 1575 1575 1576 1577 1578 1579 1579 1579 1579 1579 1579 1579 1578 1577 1577 1577 1576 1576 1575 1574
1483 1485 1497 1502 1502 1505 1507 1514 1516 1522 1525 1530 1534 1539 1542 1545 1550 1552 1554 1556 1559 1561 1563 1565 1567 1570 1571 1572 1573 1574 1574 1575 1577 1577 1577 1578 1578 1578 1578 1577 1578 1577 1577 1576 1575 1575 1576 1573 1573
1482 1486 1497 1498 1501 1505 1507 1515 1516 1527 1528 1533 1536 1539 1543 1545 1548 1551 1553 1555 1558 1560 1562 1564 1566 1568 1570 1570 1571 1572 1572 1573 1574 1574 1576 1576 1576 1576 1576 1577 1577 1576 1576 1575 1575 1573 1572 1572 1571
1479 1494 1498 1501 1502 1507 1504 1518 1519 1524 1529 1533 1536 1539 1542 1545 1547 1549 1551 1553 1555 1558 1561 1563 1565 1567 1568 1569 1570 1571 1571 1572 1572 1573 1574 1575 1575 1574 1574 1574 1575 1574 1573 1573 1572 1571 1570 1568 1567
1486 1490 1514 1506 1500 1505 1503 1534 1523 1525 1528 1533 1535 1538 1541 1543 1545 1546 1548 1551 1554 1556 1559 1562 1563 1565 1567 1568 1568 1569 1570 1570 1570 1571 1571 1572 1572 1571 1571 1571 1573 1572 1571 1570 1570 1568 1567 1566 1564
1493 1509 1506 1508 1496 1497 1505 1528 1521 1523 1525 1528 1532 1534 1536 1540 1544 1545 1547 1549 1552 1553 1556 1559 1561 1563 1565 1566 1567 1566 1567 1567 1567 1568 1569 1570 1570 1570 1569 1569 1569 1568 1568 1567 1566 1565 1564 1563 1562
1501 1505 1499 1502 1497 1496 1506 1515 1514 1518 1521 1521 1525 1530 1532 1535 1537 1541 1544 1547 1550 1552 1554 1557 1559 1561 1563 1564 1564 1564 1564 1564 1564 1565 1566 1566 1566 1566 1566 1567 1567 1565 1564 1564 1563 1563 1562 1560 1558
1486 1491 1494 1487 1488 1499 1504 1510 1510 1514 1519 1521 1521 1524 1529 1532 1535 1538 1541 1544 1547 1549 1552 1555 1556 1558 1559 1560 1561 1561 1561 1561 1562 1562 1562 1562 1563 1564 1564 1564 1564 1563 1562 1561 1560 1559 1558 1557 1556
1484 1493 1491 1484 1483 1492 1504 1509 1506 1509 1510 1512 1515 1520 1524 1529 1533 1537 1539 1542 1545 1547 1549 1552 1554 1555 1556 1558 1558 1559 1559 1559 1559 1560 1560 1560 1561 1561 1561 1561 1560 1560 1559 1558 1557 1556 1555 1554 1554
1480 1487 1487 1485 1482 1491 1505 1520 1513 1508 1510 1512 1514 1512 1516 1520 1527 1533 1537 1539 1542 1545 1547 1549 1551 1553 1554 1556 1556 1556 1556 1556 1557 1558 1558 1558 1559 1559 1558 1557 1556 1556 1556 1556 1555 1554 1552 1551 1551
1493 1471 1466 1476 1485 1518 1494 1539 1516 1504 1507 1507 1508 1512 1513 1514 1519 1527 1532 1536 1539 1541 1545 1547 1549 1551 1552 1553 1553 1554 1554 1553 1553 1554 1556 1556 1556 1556 1556 1555 1555 1555 1554 1553 1551 1550 1550 1549 1548
1473 1462 1466 1469 1480 1495 1500 1523 1500 1507 1513 1504 1501 1501 1503 1507 1511 1518 1523 1528 1534 1537 1539 1542 1546 1548 1550 1551 1552 1551 1551 1550 1551 1552 1553 1554 1553 1553 1553 1553 1552 1552 1552 1550 1549 1548 1547 1546 1546
1452 1458 1467 1477 1495 1522 1499 1508 1515 1506 1489 1489 1493 1496 1500 1503 1506 1512 1518 1522 1527 1534 1537 1540 1541 1544 1546 1548 1548 1549 1549 1548 1548 1549 1550 1551 1551 1551 1551 1552 1551 1551 1549 1548 1547 1546 1546 1545 1544
1453 1477 1510 1511 1525 1526 1498 1505 1490 1477 1473 1475 1480 1486 1492 1496 1501 1506 1513 1517 1522 1527 1531 1535 1537 1539 1542 1543 1545 1547 1548 1547 1546 1547 1549 1549 1548 1548 1549 1549 1549 1548 1548 1547 1547 1546 1546 1545 1544
1461 1471 1509 1521 1519 1505 1488 1501 1474 1456 1456 1465 1471 1476 1485 1490 1494 1498 1504 1510 1515 1520 1525 1528 1530 1534 1537 1539 1542 1544 1544 1544 1545 1545 1546 1547 1547 1547 1547 1546 1546 1546 1546 1545 1544 1544 1544 1544 1543
1453 1470 1457 1488 1491 1506 1491 1471 1452 1446 1454 1460 1467 1475 1478 1483 1488 1493 1499 1503 1507 1511 1515 1518 1522 1526 1530 1534 1537 1540 1541 1541 1542 1542 1543 1544 1545 1544 1544 1543 1543 1543 1543 1542 1541 1541 1541 1540 1540
1436 1439 1474 1489 1509 1511 1498 1484 1483 1461 1458 1458 1464 1468 1472 1478 1483 1488 1493 1495 1499 1501 1505 1511 1515 1518 1523 1528 1531 1535 1537 1537 1539 1539 1540 1540 1542 1541 1541 1541 1541 1540 1540 1540 1539 1538 1537 1537 1536
1441 1447 1456 1467 1484 1507 1513 1498 1452 1446 1447 1453 1455 1457 1465 1472 1476 1479 1484 1490 1492 1496 1500 1504 1509 1513 1518 1522 1527 1530 1532 1534 1534 1536 1538 1538 1538 1539 1539 1539 1538 1537 1536 1536 1536 1535 1534 1533 1533
1420 1436 1448 1479 1482 1485 1491 1488 1438 1437 1440 1443 1449 1453 1457 1464 1469 1474 1478 1482 1487 1490 1493 1496 1502 1507 1512 1516 1521 1524 1528 1530 1530 1532 1534 1534 1535 1536 1536 1535 1535 1534 1533 1531 1530 1530 1532 1530 1529